{"data":{"norad_id":64822,"intl_designator":"2025-151G","name":"KUIPER-00075","alt_names":[],"object_type":"PAYLOAD","status":"ACTIVE","operator":null,"country":"US","launch_date":"2025-07-16","launch_site_code":"AFETR","launch_vehicle":null,"mission":null,"orbit_class":"UNKNOWN","rcs_meters":null,"size_class":null,"mass_kg":null,"dimensions":null,"purposes":[],"wikipedia_slug":null,"has_3d_model":false,"image_url":null,"decayed_at":null,"tle_current":{"epoch":"2026-05-25T05:07:38.874432Z","epoch_age_seconds":46783,"freshness":"FRESH","line1":"1 64822U 25151G   26145.21364438  .00024053  00000+0  52841-3 0  9991","line2":"2 64822  51.8678 208.6905 0003205 194.8601 165.2295 15.43887504 48218","mean_motion":15.43887504,"eccentricity":0.0003205,"inclination_deg":51.8678,"raan_deg":208.6905,"arg_perigee_deg":194.8601,"mean_anomaly_deg":165.2295,"bstar":0.00052841,"rev_number":4821,"period_min":93.271044442627,"perigee_km":432.46538631353,"apogee_km":436.83238206529,"semimajor_km":6812.7858841894,"source":"CELESTRAK","updated_at":"2026-05-25T13:38:04.822991Z"}}}